Location: Jaite
(41.2884°N, 81.5737°W)
Time: 09:42:15
(UTC+00:00)

ALOS - Pass Details

Date: 18 January 2020
Orbit: 683 x 686 km, 97.8° (Epoch: 19 February)

Event Time Altitude Azimuth Distance (km) Brightness Sun altitude
Rises 11:03:12 0° 8° (N) 3,058 5.6 -19.5°
Reaches altitude 10° 11:05:28 10° 4° (N) 2,137 4.7 -19.1°
Maximum altitude 11:10:03 58° 286° (WNW) 799 2.2 -18.3°
Drops below altitude 10° 11:14:36 10° 208° (SSW) 2,121 4.6 -17.4°
Sets 11:16:51 0° 205° (SSW) 3,031 5.5 -17.0°
